DW9356 Weather Reports


time (UTC)temp
C
wind
direction
speed
KPH
gust
KPH
rain 1hr
cm
rain 24hr
cm
rain mn
cm
humidity
%
barometer
mb
20260505200902 28 130 4.8 19.3 0.00 0.00 0.00 78 1007.8
20260505200600 28 153 4.8 19.3 0.00 0.00 0.00 77 1008.0
20260505200034 28 137 4.8 9.7 0.00 0.00 0.00 78 1008.0
20260505195243 28 188 4.8 16.1 0.00 0.00 0.00 79 1008.1
20260505194853 28 159 4.8 11.3 0.00 0.00 0.00 79 1008.2
20260505194742 28 184 4.8 14.5 0.00 0.00 0.00 80 1008.1
20260505193646 28 174 4.8 11.3 0.00 0.00 0.00 80 1008.3
20260505193142 28 167 4.8 12.9 0.00 0.00 0.00 80 1008.3
20260505192640 28 226 4.8 12.9 0.00 0.00 0.00 80 1008.3
20260505192137 28 149 3.2 9.7 0.00 0.00 0.00 78 1008.4
20260505191611 28 182 3.2 9.7 0.00 0.00 0.00 79 1008.2
20260505191044 28 70 4.8 11.3 0.00 0.00 0.00 78 1008.3
20260505190542 29 175 3.2 11.3 0.00 0.00 0.00 77 1008.4
20260505190012 29 188 3.2 14.5 0.00 0.00 0.00 78 1008.4
20260505185716 28 150 4.8 14.5 0.00 0.00 0.00 80 1008.4
20260505184920 28 207 4.8 12.9 0.00 0.00 0.00 80 1008.5
20260505184417 28 220 4.8 11.3 0.00 0.00 0.00 81 1008.5
20260505183850 27 188 4.8 11.3 0.00 0.00 0.00 81 1008.6
20260505183346 27 176 4.8 11.3 0.00 0.00 0.00 81 1008.6
20260505183101 28 175 4.8 14.5 0.00 0.00 0.00 81 1008.7
20260505182342 28 168 3.2 14.5 0.00 0.00 0.00 81 1008.6
20260505181814 27 171 3.2 16.1 0.00 0.00 0.00 83 1008.7
20260505181311 27 184 3.2 16.1 0.00 0.00 0.00 83 1008.8
20260505181004 27 200 3.2 9.7 0.00 0.00 0.00 83 1008.8
20260505180242 27 155 4.8 11.3 0.00 0.00 0.00 82 1008.8
20260505175714 27 178 3.2 11.3 0.00 0.00 0.00 83 1008.7
20260505175212 27 186 3.2 11.3 0.00 0.00 0.00 84 1008.8
20260505174644 27 200 3.2 11.3 0.00 0.00 0.00 84 1008.9
20260505174142 26 222 3.2 11.3 0.00 0.00 0.00 84 1009.0
20260505174104 26 172 3.2 8.0 0.00 0.00 0.00 84 1009.0
20260505173048 26 288 4.8 14.5 0.00 0.00 0.00 84 1009.0
20260505172806 26 38 3.2 14.5 0.00 0.00 0.00 84 1009.1
20260505172033 26 236 3.2 11.3 0.00 0.00 0.00 86 1009.2
20260505171536 26 209 3.2 11.3 0.00 0.00 0.00 87 1009.2
20260505171008 26 188 3.2 9.7 0.00 0.00 0.00 88 1009.1
20260505170729 26 162 3.2 11.3 0.00 0.00 0.00 88 1009.3
20260505165941 25 231 3.2 11.3 0.00 0.00 0.00 87 1009.4
20260505165632 26 145 3.2 9.7 0.00 0.00 0.00 87 1009.4
20260505164910 26 173 3.2 9.7 0.00 0.00 0.00 86 1009.4
20260505164406 26 180 3.2 12.9 0.00 0.00 0.00 86 1009.3
20260505163904 26 196 4.8 12.9 0.00 0.00 0.00 86 1009.3
20260505163336 26 190 3.2 12.9 0.00 0.00 0.00 86 1009.4
20260505162833 26 204 3.2 9.7 0.00 0.00 0.00 87 1009.3
20260505162307 26 182 3.2 9.7 0.00 0.00 0.00 87 1009.3
20260505161805 26 162 3.2 9.7 0.00 0.00 0.00 87 1009.2
20260505161531 25 138 4.8 11.3 0.00 0.00 0.00 87 1009.2
20260505160955 25 157 3.2 11.3 0.00 0.00 0.00 87 1009.2
20260505160231 25 269 3.2 11.3 0.00 0.00 0.00 87 1009.2
20260505153016 25 166 3.2 14.5 0.00 0.00 0.00 88 1009.1
20260505152513 25 246 3.2 14.5 0.00 0.00 0.00 88 1009.0
20260505151949 25 210 3.2 11.3 0.00 0.00 0.00 88 1009.0
20260505151420 25 157 3.2 8.0 0.00 0.00 0.00 88 1009.0
20260505150918 25 151 4.8 11.3 0.00 0.00 0.00 88 1008.9
20260505150352 25 159 3.2 14.5 0.00 0.00 0.00 88 1008.9
20260505140618 24 194 3.2 14.5 0.00 0.00 0.00 91 1008.8
20260505124838 22 206 3.2 9.7 0.00 0.00 0.00 94 1008.3
20260505124336 22 171 3.2 6.4 0.00 0.00 0.00 94 1008.3
20260505123808 22 171 1.6 6.4 0.00 0.00 0.00 94 1008.4
20260505123304 22 201 1.6 4.8 0.00 0.00 0.00 94 1008.5
20260505122740 22 209 3.2 6.4 0.00 0.00 0.00 94 1008.5
20260505122434 22 183 3.2 8.0 0.00 0.00 0.00 94 1008.4
20260505121647 22 178 3.2 8.0 0.00 0.00 0.00 94 1008.4
20260505121122 22 161 3.2 8.0 0.00 0.00 0.00 94 1008.5
20260505120816 21 155 3.2 8.0 0.00 0.00 0.00 94 1008.3
20260505120027 21 186 3.2 9.7 0.00 0.00 0.00 94 1008.1
20260505115747 21 186 1.6 9.7 0.00 0.00 0.00 94 1008.0
20260505115021 21 190 1.6 8.0 0.00 0.00 0.00 94 1008.0
20260505114519 21 166 3.2 9.7 0.00 0.00 0.00 94 1007.9
20260505114015 21 174 3.2 9.7 0.00 0.00 0.00 94 1008.0
20260505113725 21 182 1.6 6.4 0.00 0.00 0.00 94 1008.3
20260505112957 21 0 1.6 6.4 0.00 0.00 0.00 94 1008.5
20260505112432 21 0 1.6 4.8 0.00 0.00 0.00 94 1008.3
20260505111904 21 200 1.6 6.4 0.00 0.00 0.00 94 1008.2
20260505111401 21 0 1.6 6.4 0.00 0.00 0.00 94 1008.1
20260505110834 21 157 1.6 6.4 0.00 0.00 0.00 94 1008.1
20260505110331 21 200 1.6 6.4 0.00 0.00 0.00 94 1008.2
20260505102109 21 171 1.6 6.4 0.00 0.00 0.00 93 1008.2
20260505101540 21 0 1.6 6.4 0.00 0.00 0.00 93 1008.2
20260505101038 21 169 1.6 6.4 0.00 0.00 0.00 93 1008.2
20260505100511 21 165 1.6 8.0 0.00 0.00 0.00 93 1008.2
20260505095944 21 107 3.2 8.0 0.00 0.00 0.00 92 1008.4
20260505095442 21 199 3.2 8.0 0.00 0.00 0.00 92 1008.4
20260505094913 21 184 1.6 8.0 0.00 0.00 0.00 92 1008.3
20260505094411 21 185 1.6 6.4 0.00 0.00 0.00 92 1008.3
20260505093845 21 165 1.6 6.4 0.00 0.00 0.00 92 1008.2
20260505093341 21 169 1.6 9.7 0.00 0.00 0.00 92 1008.2
20260505093103 21 204 1.6 9.7 0.00 0.00 0.00 92 1008.3
20260505092336 21 183 1.6 4.8 0.00 0.00 0.00 92 1008.4
20260505091810 21 170 1.6 6.4 0.00 0.00 0.00 92 1008.6
20260505091242 21 178 1.6 6.4 0.00 0.00 0.00 92 1008.5
20260505091224 21 224 1.6 6.4 0.00 0.00 0.00 92 1008.5
20260505090212 21 168 1.6 6.4 0.00 0.00 0.00 92 1008.5
20260505085934 21 165 1.6 6.4 0.00 0.00 0.00 92 1008.5
20260505085143 21 0 1.6 8.0 0.00 0.00 0.00 92 1008.5
20260505084638 21 198 1.6 8.0 0.00 0.00 0.00 92 1008.6
20260505084112 21 184 1.6 8.0 0.00 0.00 0.00 92 1008.6
20260505083609 21 190 1.6 8.0 0.00 0.00 0.00 91 1008.5
20260505083106 21 0 1.6 4.8 0.00 0.00 0.00 91 1008.7
20260505082539 21 173 1.6 6.4 0.00 0.00 0.00 91 1008.7
20260505082012 21 161 1.6 6.4 0.00 0.00 0.00 91 1008.8
20260505081510 21 0 1.6 8.0 0.00 0.00 0.00 91 1008.9
20260505080957 21 0 1.6 8.0 0.00 0.00 0.00 91 1008.8
20260505080722 21 194 1.6 8.0 0.00 0.00 0.00 91 1008.9
20260505075934 21 0 1.6 6.4 0.00 0.00 0.00 90 1009.0
20260505075431 21 197 1.6 6.4 0.00 0.00 0.00 90 1009.0
20260505075156 21 185 1.6 9.7 0.00 0.00 0.00 90 1009.1
20260505074402 21 196 1.6 9.7 0.00 0.00 0.00 90 1009.1
20260505073835 21 197 0.0 3.2 0.00 0.00 0.00 90 1009.1
20260505073308 21 201 1.6 9.7 0.00 0.00 0.00 90 1009.1
20260505072806 21 174 1.6 9.7 0.00 0.00 0.00 89 1009.1
20260505072304 21 198 1.6 6.4 0.00 0.00 0.00 89 1009.1
20260505071800 21 167 1.6 12.9 0.00 0.00 0.00 89 1009.3
20260505071234 21 200 1.6 12.9 0.00 0.00 0.00 89 1009.3
20260505070706 21 186 0.0 6.4 0.00 0.00 0.00 89 1009.4
20260505070203 21 0 1.6 11.3 0.00 0.00 0.00 89 1009.4
20260505065639 21 0 1.6 11.3 0.00 0.00 0.00 88 1009.5
20260505065111 21 0 1.6 11.3 0.00 0.00 0.00 88 1009.5
20260505064608 21 188 1.6 11.3 0.00 0.00 0.00 88 1009.5
20260505064041 21 178 1.6 9.7 0.00 0.00 0.00 88 1009.5
20260505063538 21 139 1.6 9.7 0.00 0.00 0.00 88 1009.6
20260505063232 21 0 1.6 11.3 0.00 0.00 0.00 88 1009.6
20260505062509 21 187 1.6 11.3 0.00 0.00 0.00 88 1009.6
20260505061940 21 201 1.6 11.3 0.00 0.00 0.00 88 1009.7
20260505061438 21 165 1.6 8.0 0.00 0.00 0.00 87 1009.8
20260505061356 21 0 1.6 8.0 0.00 0.00 0.00 87 1010.0
20260505060602 21 186 3.2 12.9 0.00 0.00 0.00 87 1010.1
20260505055818 21 0 1.6 9.7 0.00 0.00 0.00 87 1010.0
20260505055316 21 186 1.6 11.3 0.00 0.00 0.00 87 1010.0
20260505054750 21 0 1.6 11.3 0.00 0.00 0.00 87 1009.9
20260505054223 21 198 1.6 8.0 0.00 0.00 0.00 86 1010.0
20260505053916 21 173 3.2 9.7 0.00 0.00 0.00 86 1010.0
20260505053408 21 0 3.2 9.7 0.00 0.00 0.00 86 1010.1
20260505052842 21 0 3.2 8.0 0.00 0.00 0.00 86 1010.1
20260505052100 21 119 3.2 8.0 0.00 0.00 0.00 86 1010.3
20260505051547 21 0 1.6 8.0 0.00 0.00 0.00 85 1010.3
20260505051049 21 146 1.6 6.4 0.00 0.00 0.00 85 1010.3
20260505050809 21 0 1.6 6.4 0.00 0.00 0.00 85 1010.3
20260505041333 22 230 4.8 17.7 0.00 0.00 0.00 83 1010.3
20260505040820 22 130 4.8 16.1 0.00 0.00 0.00 83 1010.2
20260505040320 22 163 4.8 11.3 0.00 0.00 0.00 82 1010.2
20260505035820 22 165 3.2 9.7 0.00 0.00 0.00 82 1010.4
20260505035311 22 161 3.2 9.7 0.00 0.00 0.00 82 1010.6
20260505034811 22 135 3.2 16.1 0.00 0.00 0.00 82 1010.4
20260505034311 22 192 3.2 16.1 0.00 0.00 0.00 81 1010.5
20260505033811 22 200 4.8 14.5 0.00 0.00 0.00 81 1010.7
20260505033530 22 212 4.8 14.5 0.00 0.00 0.00 81 1010.8
20260505033035 22 188 6.4 16.1 0.00 0.00 0.00 81 1010.8
20260505032309 22 193 4.8 16.1 0.00 0.00 0.00 81 1010.7
20260505031755 22 246 3.2 14.5 0.00 0.00 0.00 80 1010.7
20260505031255 23 173 3.2 11.3 0.00 0.00 0.00 80 1010.6
20260505030732 23 123 3.2 12.9 0.00 0.00 0.00 80 1010.5
20260505030213 23 159 4.8 12.9 0.00 0.00 0.00 80 1010.6
20260505025935 23 181 6.4 14.5 0.00 0.00 0.00 79 1010.5
20260505025216 23 160 4.8 14.5 0.00 0.00 0.00 79 1010.5
20260505024706 23 121 4.8 12.9 0.00 0.00 0.00 79 1010.4
20260505024209 23 277 4.8 14.5 0.00 0.00 0.00 79 1010.6
20260505023708 23 197 4.8 14.5 0.00 0.00 0.00 78 1010.6
20260505023415 23 213 6.4 14.5 0.00 0.00 0.00 78 1010.6
20260505022653 23 184 6.4 14.5 0.00 0.00 0.00 78 1010.5
20260505022153 23 131 6.4 17.7 0.00 0.00 0.00 78 1010.4
20260505021653 23 172 6.4 17.7 0.00 0.00 0.00 78 1010.3
20260505021153 23 158 4.8 19.3 0.00 0.00 0.00 78 1010.3
20260505020910 23 169 6.4 19.3 0.00 0.00 0.00 77 1010.3
20260505020147 23 180 4.8 16.1 0.00 0.00 0.00 77 1010.3
20260505015646 23 170 4.8 11.3 0.00 0.00 0.00 77 1010.3
20260505015145 23 192 4.8 14.5 0.00 0.00 0.00 77 1010.2
20260505014621 23 205 4.8 14.5 0.00 0.00 0.00 77 1010.1
20260505014100 24 159 4.8 14.5 0.00 0.00 0.00 77 1010.1
20260505013827 24 173 4.8 20.9 0.00 0.00 0.00 76 1010.1
20260505013040 24 185 6.4 20.9 0.00 0.00 0.00 76 1009.9
20260505012517 24 180 4.8 11.3 0.00 0.00 0.00 76 1009.8
20260505011951 24 157 4.8 12.9 0.00 0.00 0.00 76 1009.8
20260505011429 24 162 4.8 12.9 0.00 0.00 0.00 76 1009.8
20260505010903 24 139 3.2 11.3 0.00 0.00 0.00 76 1010.0
20260505010403 24 198 3.2 14.5 0.00 0.00 0.00 76 1010.0
20260505005904 24 152 3.2 14.5 0.00 0.00 0.00 76 1010.0
20260505005347 24 139 3.2 8.0 0.00 0.00 0.00 75 1010.0
20260505005054 24 227 3.2 11.3 0.00 0.00 0.00 75 1009.9
20260505004258 24 197 4.8 11.3 0.00 0.00 0.00 75 1009.8
20260505003731 24 241 4.8 12.9 0.00 0.00 0.00 74 1009.8
20260505003215 25 128 6.4 12.9 0.00 0.00 0.00 74 1009.7
20260505002715 25 162 6.4 16.1 0.00 0.00 0.00 73 1009.7
20260505002216 25 164 4.8 16.1 0.00 0.00 0.00 73 1009.7
20260505001716 25 165 3.2 16.1 0.00 0.00 0.00 73 1009.8
20260505001152 25 179 3.2 9.7 0.00 0.00 0.00 73 1010.0
20260505000626 25 185 4.8 12.9 0.00 0.00 0.00 73 1009.9
20260505000125 25 150 4.8 12.9 0.00 0.00 0.00 72 1010.0
20260504235628 25 188 4.8 14.5 0.00 0.00 0.00 72 1010.0
20260504235326 25 158 4.8 14.5 0.00 0.00 0.00 72 1009.9
20260504234604 25 207 4.8 11.3 0.00 0.00 0.00 71 1010.0
20260504234102 26 170 3.2 8.0 0.00 0.00 0.00 71 1009.9
20260504233818 26 163 3.2 12.9 0.00 0.00 0.00 71 1010.1
20260504233032 26 178 3.2 12.9 0.00 0.00 0.00 71 1010.1
20260504232532 26 172 4.8 12.9 0.00 0.00 0.00 70 1010.2
20260504232030 26 130 4.8 12.9 0.00 0.00 0.00 70 1010.2
20260504231750 26 176 4.8 12.9 0.00 0.00 0.00 70 1010.2
20260504231025 26 180 4.8 12.9 0.00 0.00 0.00 70 1010.3
20260504230525 26 150 3.2 14.5 0.00 0.00 0.00 70 1010.3
20260504230025 26 173 4.8 16.1 0.00 0.00 0.00 70 1010.5
20260504225756 26 176 4.8 16.1 0.00 0.00 0.00 69 1010.5
20260504225002 26 156 4.8 14.5 0.00 0.00 0.00 69 1010.3
20260504224434 26 146 4.8 17.7 0.00 0.00 0.00 69 1010.4
20260504224128 26 101 4.8 17.7 0.00 0.00 0.00 68 1010.5
20260504223346 26 148 3.2 12.9 0.00 0.00 0.00 67 1010.6
20260504222820 26 194 4.8 12.9 0.00 0.00 0.00 66 1010.6
20260504222300 27 207 4.8 12.9 0.00 0.00 0.00 65 1010.6
20260504221801 27 138 4.8 12.9 0.00 0.00 0.00 66 1010.7
20260504221256 27 221 4.8 12.9 0.00 0.00 0.00 65 1010.8
20260504220756 27 154 3.2 12.9 0.00 0.00 0.00 66 1010.8
20260504220257 27 181 3.2 9.7 0.00 0.00 0.00 66 1010.8
20260504215735 27 200 4.8 9.7 0.00 0.00 0.00 65 1010.8
20260504215235 27 165 3.2 8.0 0.00 0.00 0.00 65 1010.9
20260504215158 27 163 3.2 11.3 0.00 0.00 0.00 65 1010.9
20260504214146 27 182 4.8 11.3 0.00 0.00 0.00 65 1011.1
20260504214103 27 180 4.8 11.3 0.00 0.00 0.00 64 1011.1
20260504213057 27 178 3.2 9.7 0.00 0.00 0.00 63 1011.0
20260504212531 27 186 3.2 6.4 0.00 0.00 0.00 63 1011.3
20260504212030 28 148 3.2 11.3 0.00 0.00 0.00 64 1011.2
20260504212013 27 237 3.2 14.5 0.00 0.00 0.00 64 1011.2
20260504211008 27 134 3.2 14.5 0.00 0.00 0.00 64 1011.4
20260504210506 27 171 4.8 16.1 0.00 0.00 0.00 63 1011.4
20260504210006 28 163 4.8 16.1 0.00 0.00 0.00 61 1011.5
20260504205503 28 112 4.8 9.7 0.00 0.00 0.00 61 1011.5
20260504205159 29 130 3.2 12.9 0.00 0.00 0.00 62 1011.6
20260504204436 28 148 3.2 16.1 0.00 0.00 0.00 60 1011.8
20260504203932 28 192 4.8 16.1 0.00 0.00 0.00 62 1011.7
20260504203430 28 104 6.4 16.1 0.00 0.00 0.00 60 1011.7
20260504202929 28 195 4.8 16.1 0.00 0.00 0.00 61 1011.9
20260504202426 28 187 4.8 12.9 0.00 0.00 0.00 63 1011.9
20260504201859 27 203 3.2 12.9 0.00 0.00 0.00 63 1012.2